DW2919 Weather Reports


Display with metric or nautical units.
time (UTC)temp
F
wind
direction
speed
MPH
gust
MPH
rain 1hr
in
rain 24hr
in
rain mn
in
humidity
%
barometer
mb
20260505101609 55 43 10.0 14.0 0.00 0.00 0.00 82 1009.4
20260505100013 54 49 9.0 16.0 0.00 0.00 0.00 83 1009.5
20260505094628 54 43 9.0 14.0 0.00 0.00 0.00 85 1009.5
20260505093116 53 43 9.0 16.0 0.00 0.00 0.00 85 1009.5
20260505091604 52 39 11.0 14.0 0.00 0.00 0.00 85 1009.9
20260505090057 52 28 9.0 16.0 0.00 0.00 0.00 85 1010.0
20260505084624 52 49 11.0 16.0 0.00 0.00 0.00 84 1009.9
20260505083110 52 15 10.0 16.0 0.00 0.00 0.00 86 1009.9
20260505081604 51 5 9.0 18.0 0.00 0.00 0.00 86 1009.9
20260505080048 52 14 9.0 18.0 0.00 0.00 0.00 86 1009.9
20260505074510 52 49 5.0 14.0 0.00 0.00 0.00 86 1010.0
20260505073125 52 18 7.0 14.0 0.00 0.00 0.00 87 1010.0
20260505071553 52 17 8.0 14.0 0.00 0.00 0.00 87 1010.0
20260505070023 51 35 7.0 20.0 0.00 0.00 0.00 87 1010.0
20260505064504 51 10 8.0 12.0 0.00 0.00 0.00 87 1010.1
20260505063121 51 22 7.0 18.0 0.00 0.00 0.00 87 1010.1
20260505061616 51 13 10.0 18.0 0.00 0.00 0.00 87 1010.0
20260505060011 51 30 7.0 15.0 0.00 0.00 0.00 88 1010.0
20260505054627 51 24 7.0 14.0 0.00 0.00 0.00 88 1010.1
20260505053113 51 24 9.0 13.0 0.00 0.00 0.00 88 1010.2
20260505051605 51 9 8.0 15.0 0.00 0.00 0.00 88 1010.2
20260505041620 51 12 9.0 13.0 0.00 0.00 0.00 88 1010.5
20260505040105 51 360 6.0 10.0 0.00 0.00 0.00 88 1010.5
20260505034528 51 17 7.0 10.0 0.00 0.00 0.00 88 1010.6
20260505033030 51 34 8.0 12.0 0.00 0.00 0.00 88 1010.6
20260505031505 51 42 8.0 13.0 0.00 0.00 0.00 88 1010.6
20260505030120 51 17 7.0 12.0 0.00 0.00 0.00 89 1010.6
20260505024611 51 27 7.0 12.0 0.00 0.00 0.00 89 1010.7
20260505023056 51 35 6.0 10.0 0.00 0.00 0.00 89 1010.7
20260505021602 51 42 10.0 14.0 0.00 0.00 0.00 89 1010.7
20260505020010 51 28 7.0 13.0 0.00 0.00 0.00 90 1010.6
20260505014626 52 21 8.0 14.0 0.00 0.00 0.00 90 1010.6
20260505013009 52 19 8.0 18.0 0.00 0.00 0.00 91 1010.6
20260505011624 52 355 8.0 14.0 0.00 0.00 0.00 91 1010.5
20260505010006 52 5 8.0 13.0 0.00 0.00 0.00 91 1010.8
20260505004624 52 34 8.0 12.0 0.00 0.00 0.00 91 1011.0
20260505003107 52 360 7.0 13.0 0.00 0.00 0.00 91 1011.2
20260505001511 52 360 8.0 14.0 0.00 0.00 0.00 91 1011.3
20260505000108 52 5 7.0 12.0 0.00 0.00 0.00 91 1011.5
20260504234555 51 19 9.0 13.0 0.00 0.00 0.00 91 1011.5
20260504233055 51 15 7.0 13.0 0.00 0.00 0.00 91 1011.7
20260504231505 51 14 8.0 15.0 0.00 0.00 0.00 91 1011.7
20260504230121 52 9 9.0 15.0 0.00 0.00 0.00 91 1011.7
20260504224610 51 11 7.0 15.0 0.00 0.00 0.00 91 1011.7
20260504223015 51 19 10.0 18.0 0.00 0.00 0.00 91 1011.8
20260504221609 51 5 8.0 18.0 0.00 0.00 0.00 91 1011.9
20260504220010 52 5 9.0 16.0 0.00 0.00 0.00 91 1011.9
20260504214627 52 355 11.0 19.0 0.00 0.00 0.00 91 1012.0
20260504213103 52 24 12.0 22.0 0.00 0.00 0.00 90 1012.1
20260504211515 52 5 12.0 18.0 0.00 0.00 0.00 91 1012.2
20260504210007 52 5 9.0 18.0 0.00 0.00 0.00 91 1012.1
20260504204620 52 22 8.0 18.0 0.00 0.00 0.00 91 1012.2
20260504203107 52 355 10.0 19.0 0.00 0.00 0.00 91 1012.1
20260504201510 52 20 9.0 15.0 0.00 0.00 0.00 91 1012.1
20260504200125 52 17 8.0 14.0 0.00 0.00 0.00 90 1012.2
20260504194618 52 355 8.0 13.0 0.00 0.00 0.00 90 1012.0
20260504193103 52 13 8.0 12.0 0.00 0.00 0.00 90 1011.8
20260504191510 53 11 5.0 12.0 0.00 0.00 0.00 90 1011.8
20260504190121 53 5 11.0 19.0 0.00 0.00 0.00 89 1011.7
20260504184611 53 26 10.0 16.0 0.00 0.00 0.00 89 1011.7
20260504183014 53 20 10.0 21.0 0.00 0.00 0.00 89 1011.5
20260504181631 54 13 11.0 20.0 0.00 0.00 0.00 89 1011.2
20260504180054 54 11 9.0 19.0 0.00 0.00 0.00 89 1011.2
20260504174546 55 5 10.0 16.0 0.00 0.00 0.00 89 1011.3
20260504173008 55 5 10.0 18.0 0.00 0.00 0.00 88 1011.3
20260504171624 56 355 10.0 18.0 0.00 0.00 0.00 88 1011.3
20260504170109 57 19 10.0 16.0 0.00 0.00 0.00 86 1011.3
20260504160107 64 5 10.0 16.0 0.00 0.02 0.00 79 1010.9
20260504140114 68 348 4.0 7.0 0.00 0.06 0.00 71 1011.0
20260504130107 67 333 3.0 7.0 0.00 0.17 0.00 75 1011.7
20260504120125 65 267 2.0 7.0 0.00 0.17 0.00 79 1011.8
20260504110119 64 341 2.0 5.0 0.00 0.17 0.00 80 1012.1